星链-30897 (STARLINK-30897 )

导读

STARLINK-30897是美国太空探索技术公司星链互联网卫星星座的一员,于2023年11月18日发射入轨,服务全球卫星互联网通信,为偏远地区、海洋空域等场景提供低延迟宽带网络覆盖,星链项目依靠批量组网实现服务,该卫星是星座组网扩容的组成部分,延续星链低轨卫星通信的技术路线。

Basic Information
目录编号:
58360
目录名称:
STARLINK-30897
国际标识:
2023-177K
轨道中心:
EARTH
卫星名称:
星链-30897
卫星全名:
星链-30897 (STARLINK-30897 )
卫星状态:
在轨 (已飞行1022 天)
发射日期:
2023-11-18 UTC
国别 :
美国 (US)
星等 :
--
Orbit Information
数据来源 国际轨道数据 AOE轨道数据
星历时间 2026-09-04T21:48:41+0800
17小时前
查看轨道信息
2026-09-03T11:00:00+0800
2天前
查看轨道信息
半长轴 6861.198km 6861.146km
偏心率 0.0001564 0.0001481
轨道倾角 43.005° 43.006°
近地点辐角 266.551° 281.588°
升交点赤经 74.994° 83.184°
平近点角 93.516° 12.611°
近地点 481.987km 481.992km
远地点 484.135km 484.026km
周期 94.267分钟 94.266分钟
每日圈数 15.275763 15.275937
Detailed Information
固有亮度:
5
最大亮度:
0.3
卫星平台:
Starlink v2.0 mini
覆盖范围:
全球
运营商:
太空探索技术公司
运营商所在国:
美国
制造商(研发单位):
太空探索技术公司
制造商所在国:
美国
使用方式:
暂无
Satellite Introduction
星链(Starlink)计划是由太空探索技术公司(SpaceX)提出的一个巨型低轨卫星互联网星座项目,计划在2019年至2024年间在太空搭建由约1.2万颗卫星组成的“星链”网络,其中1584颗将部署在地球上空550千米处的近地轨道,并从2020年开始工作。该卫星仍在工作。
2D Orbit Map
3D Orbit Map
Orbit Altitude Analysis Chart
Orbit Inclination Analysis Chart
Orbit Comprehensive Analysis Chart
View Comprehensive Chart
Conjunction Data List
Event ID Objects TCA Miss Dist (km) Collision Risk Probability Collision Risk Index (CRI) Action
CDM_260905-195005-836006-436021
2026-09-05T
19:50:16+0000
1.710 km
极远距离
3.767388E-6 低风险 0.47
CDM_260907-134005-836006-801321
2026-09-07T
13:40:35+0000
1.600 km
极远距离
2.271296E-6 低风险 0.42
CDM_260907-151405-836006-801321
2026-09-07T
15:14:44+0000
1.864 km
极远距离
1.496025E-6 低风险 0.38
CDM_260905-101005-307505-836021
2026-09-05T
10:10:33+0000
2.433 km
极远距离
1.185986E-6 低风险 0.36
CDM_260905-114405-307505-836021
2026-09-05T
11:44:50+0000
2.550 km
极远距离
1.09496E-6 低风险 0.36
CDM_260905-083605-307505-836021
2026-09-05T
08:36:15+0000
2.603 km
极远距离
1.06053E-6 低风险 0.36
CDM_260905-131905-307505-836021
2026-09-05T
13:19:08+0000
2.693 km
极远距离
1.006663E-6 低风险 0.35
CDM_260905-180205-307505-836021
2026-09-05T
18:02:01+0000
2.708 km
极远距离
9.980009E-7 极低风险 0.35
CDM_260905-162705-307505-836021
2026-09-05T
16:27:43+0000
2.712 km
极远距离
9.96012E-7 极低风险 0.35
CDM_260905-145305-307505-836021
2026-09-05T
14:53:26+0000
2.746 km
极远距离
9.792516E-7 极低风险 0.35